Regional Weather Roundup
Issued by NWS

Home | Current Version | Previous Version | Graphics & Text | Print | Product List | Glossary Off
Versions: 1 2 3 4 5 6 7 8 9 10 11 12 13 14 15 16 17 18 19 20 21 22 23 24 25 26 27 28 29 30 31 32 33 34 35 36 37 38 39 40 41 42 43 44 45 46 47 48 49 50

000
ASUS43 KTOP 201959
RWRKS

WEATHER ROUNDUP FOR KANSAS
NATIONAL WEATHER SERVICE GOODLAND KS
300 PM CDT SUN AUG 20 2017

NOTE:  "FAIR" INDICATES FEW OR NO CLOUDS BELOW 12,000 FEET WITH NO
SIGNIFICANT WEATHER AND/OR OBSTRUCTIONS TO VISIBILITY.

KSZ001>006-013>018-027>032-041>047-202100-
NORTHWEST KANSAS

CITY           SKY/WX    TMP DP  RH WIND       PRES   REMARKS
GOODLAND       PTSUNNY   91  58  32 CALM      29.97F
HAYS           MOSUNNY   99  62  29 S20       29.88F HX 100
HILL CITY      MOSUNNY   98  63  31 S12       29.89F HX 100
RUSSELL        SUNNY     97  65  34 S20G25    29.88F HX  99
$$

KSZ061>065-074>080-084>089-202100-
SOUTHWEST KANSAS

CITY           SKY/WX    TMP DP  RH WIND       PRES   REMARKS
DODGE CITY     SUNNY     97  61  30 S15G24    29.95S HX  97
ELKHART          N/A     89  65  44 S14         N/A
GARDEN CITY    SUNNY     91  63  39 S14       29.95F
GREAT BEND     SUNNY     97  65  34 S21       29.90F HX  99
LIBERAL        SUNNY     92  65  40 S22       29.97F
$$

KSZ066>073-081>083-090>101-202100-
SOUTHEAST KANSAS

CITY           SKY/WX    TMP DP  RH WIND       PRES   REMARKS
CHANUTE        MOSUNNY   94  76  55 S10       29.96F HX 106
COFFEYVILLE    SUNNY     94  75  54 S15       29.94F HX 105
HUTCHINSON     SUNNY     96  67  38 S17       29.91F HX 100
MEDICINE LODGE   N/A     94  68  42 S13G20    29.92F HX  98
NEWTON         SUNNY     94  74  52 S14       29.94F HX 104
PARSONS        SUNNY     93  76  57 S9        29.96F HX 105
WICHITA INTL   PTSUNNY   97  71  42 S16G22    29.93F HX 104
WICHITA JABRA  SUNNY     92  75  57 S16       29.94F HX 103
WINFIELD       SUNNY     93  74  53 S12       29.95F HX 103
$$

KSZ007>012-019>026-033>040-048>060-102>105-202100-
NORTHEAST KANSAS

CITY           SKY/WX    TMP DP  RH WIND       PRES   REMARKS
CONCORDIA      CLOUDY    93  72  50 S15       29.90F HX 101
EMPORIA        MOSUNNY   91  74  57 S17       29.94F HX 100
LAWRENCE       MOSUNNY   89  74  60 E10       29.98R HX  98
MANHATTAN      CLOUDY    94  74  52 S12       29.91R HX 104
OLATHE IND     MOSUNNY   88  73  61 E9        30.00R HX  95
OLATHE EXE     MOSUNNY   86  75  69 SE8       30.00R HX  95
SALINA         SUNNY    102  66  30 S16G24    29.88F HX 106
TOPEKA BILLARD MOSUNNY   91  76  61 E12       29.95S HX 103
TOPEKA FORBES  PTSUNNY   93  75  55 SE6       29.96S HX 104
$$




USA.gov is the U.S. government's official web portal to all federal, state and local government web resources and services.